Back to catalog

FENGYUN 1C DEB

AlivePO
NORAD 31376·DEBRIS·🇨🇳 China

Launched May 10, 1999 from Taiyuan Satellite Launch Center

Loading…

Next Passes (next 24 hours)

TLE

FreshSource: Space-Track

Epoch: Sep 14, 2026, 14:05 UTC

1 31376U 99025BSG 26257.58732026  .00005805  00000-0  10375-2 0  9996
2 31376  98.8384 198.9410 0046390 133.6198 226.8867 14.66629171 21776

Track FENGYUN 1C DEB in real time with AllMySat

Download on the App Store